TimeCST,TemperatureF,Dew PointF,Humidity,Sea Level PressureIn,VisibilityMPH,Wind Direction,Wind SpeedMPH,Gust SpeedMPH,PrecipitationIn,Events,Conditions,WindDirDegrees,DateUTC
12:15 AM,46.4,33.8,62,30.17,10.0,NNW,9.2,-,N/A,,Clear,340,2012-12-04 06:15:00
12:35 AM,46.4,32.0,57,30.17,10.0,North,8.1,-,N/A,,Clear,350,2012-12-04 06:35:00
12:55 AM,44.6,32.0,61,30.17,10.0,NNW,8.1,-,N/A,,Clear,340,2012-12-04 06:55:00
1:15 AM,42.8,32.0,66,30.18,10.0,North,6.9,-,N/A,,Clear,350,2012-12-04 07:15:00
1:35 AM,42.8,32.0,66,30.17,10.0,North,6.9,-,N/A,,Clear,360,2012-12-04 07:35:00
1:55 AM,42.8,32.0,66,30.18,10.0,NNW,8.1,-,N/A,,Clear,340,2012-12-04 07:55:00
2:15 AM,42.8,32.0,66,30.19,10.0,North,8.1,-,N/A,,Clear,350,2012-12-04 08:15:00
2:35 AM,41.0,32.0,70,30.19,10.0,North,6.9,-,N/A,,Clear,360,2012-12-04 08:35:00
2:55 AM,41.0,32.0,70,30.19,10.0,North,5.8,-,N/A,,Clear,360,2012-12-04 08:55:00
3:15 AM,37.4,32.0,81,30.21,10.0,NW,5.8,-,N/A,,Clear,320,2012-12-04 09:15:00
3:35 AM,37.4,32.0,81,30.22,10.0,North,6.9,-,N/A,,Scattered Clouds,350,2012-12-04 09:35:00
3:55 AM,39.2,32.0,75,30.23,10.0,North,6.9,-,N/A,,Clear,10,2012-12-04 09:55:00
4:15 AM,41.0,32.0,70,30.23,10.0,North,8.1,-,N/A,,Clear,10,2012-12-04 10:15:00
4:35 AM,41.0,32.0,70,30.24,10.0,North,6.9,-,N/A,,Clear,360,2012-12-04 10:35:00
4:55 AM,37.4,30.2,75,30.26,10.0,NNW,6.9,-,N/A,,Clear,330,2012-12-04 10:55:00
5:15 AM,37.4,30.2,75,30.26,10.0,NNW,5.8,-,N/A,,Clear,330,2012-12-04 11:15:00
5:35 AM,37.4,30.2,75,30.26,10.0,North,5.8,-,N/A,,Clear,350,2012-12-04 11:35:00
5:55 AM,35.6,30.2,81,30.26,10.0,North,8.1,-,N/A,,Clear,360,2012-12-04 11:55:00
6:15 AM,35.6,30.2,81,30.27,10.0,North,6.9,-,N/A,,Clear,360,2012-12-04 12:15:00
6:35 AM,37.4,30.2,75,30.28,10.0,North,8.1,-,N/A,,Clear,10,2012-12-04 12:35:00
6:55 AM,33.8,28.4,81,30.31,10.0,North,3.5,-,N/A,,Clear,350,2012-12-04 12:55:00
7:15 AM,33.8,28.4,81,30.32,10.0,NNW,6.9,-,N/A,,Clear,340,2012-12-04 13:15:00
7:35 AM,33.8,28.4,81,30.34,10.0,NW,5.8,-,N/A,,Clear,310,2012-12-04 13:35:00
7:55 AM,33.8,28.4,81,30.34,10.0,NNW,4.6,-,N/A,,Clear,340,2012-12-04 13:55:00
8:15 AM,37.4,28.4,70,30.34,10.0,NNW,4.6,-,N/A,,Clear,340,2012-12-04 14:15:00
8:35 AM,39.2,28.4,65,30.33,10.0,Calm,Calm,-,N/A,,Clear,0,2012-12-04 14:35:00
8:55 AM,42.8,28.4,57,30.34,10.0,NNW,3.5,-,N/A,,Clear,340,2012-12-04 14:55:00
9:15 AM,44.6,28.4,53,30.35,10.0,NNW,4.6,-,N/A,,Clear,340,2012-12-04 15:15:00
9:35 AM,48.2,26.6,43,30.36,10.0,NNW,3.5,-,N/A,,Clear,340,2012-12-04 15:35:00
9:55 AM,50.0,23.0,35,30.37,10.0,NNW,3.5,-,N/A,,Clear,340,2012-12-04 15:55:00
10:15 AM,51.8,23.0,33,30.37,10.0,NNE,4.6,-,N/A,,Clear,20,2012-12-04 16:15:00
10:35 AM,51.8,21.2,30,30.39,10.0,North,3.5,-,N/A,,Clear,350,2012-12-04 16:35:00
10:55 AM,55.4,19.4,25,30.38,10.0,ENE,3.5,-,N/A,,Clear,70,2012-12-04 16:55:00
11:15 AM,55.4,19.4,25,30.38,10.0,NNE,3.5,-,N/A,,Clear,20,2012-12-04 17:15:00
11:35 AM,55.4,19.4,25,30.38,10.0,East,3.5,-,N/A,,Clear,80,2012-12-04 17:35:00
11:55 AM,55.4,19.4,25,30.38,10.0,North,5.8,-,N/A,,Clear,360,2012-12-04 17:55:00
12:15 PM,59.0,19.4,22,30.37,10.0,Calm,Calm,-,N/A,,Clear,0,2012-12-04 18:15:00
12:35 PM,59.0,19.4,22,30.36,10.0,South,3.5,-,N/A,,Clear,170,2012-12-04 18:35:00
12:55 PM,59.0,17.6,20,30.36,10.0,Calm,Calm,-,N/A,,Clear,0,2012-12-04 18:55:00
1:15 PM,59.0,14.0,17,30.35,10.0,Calm,Calm,-,N/A,,Clear,0,2012-12-04 19:15:00
1:35 PM,60.8,12.2,15,30.35,10.0,North,5.8,-,N/A,,Clear,360,2012-12-04 19:35:00
1:55 PM,60.8,12.2,15,30.34,10.0,NNW,4.6,-,N/A,,Clear,340,2012-12-04 19:55:00
2:15 PM,60.8,12.2,15,30.33,10.0,NNE,4.6,-,N/A,,Clear,20,2012-12-04 20:15:00
2:35 PM,60.8,12.2,15,30.33,10.0,North,3.5,-,N/A,,Clear,360,2012-12-04 20:35:00
2:55 PM,60.8,12.2,15,30.33,10.0,Calm,Calm,-,N/A,,Clear,0,2012-12-04 20:55:00
3:15 PM,60.8,12.2,15,30.34,10.0,Calm,Calm,-,N/A,,Clear,0,2012-12-04 21:15:00
3:35 PM,60.8,12.2,15,30.33,10.0,Calm,Calm,-,N/A,,Clear,0,2012-12-04 21:35:00
3:55 PM,60.8,12.2,15,30.34,10.0,Calm,Calm,-,N/A,,Clear,0,2012-12-04 21:55:00
4:15 PM,59.0,14.0,17,30.34,10.0,Calm,Calm,-,N/A,,Clear,0,2012-12-04 22:15:00
4:35 PM,59.0,15.8,19,30.34,10.0,Calm,Calm,-,N/A,,Clear,0,2012-12-04 22:35:00
4:55 PM,57.2,14.0,18,30.33,10.0,Calm,Calm,-,N/A,,Clear,0,2012-12-04 22:55:00
5:15 PM,55.4,17.6,23,30.33,10.0,Calm,Calm,-,N/A,,Clear,0,2012-12-04 23:15:00
5:35 PM,53.6,15.8,22,30.33,10.0,Calm,Calm,-,N/A,,Clear,0,2012-12-04 23:35:00
5:55 PM,53.6,15.8,22,30.33,10.0,Calm,Calm,-,N/A,,Clear,0,2012-12-04 23:55:00
6:15 PM,51.8,15.8,24,30.33,10.0,Calm,Calm,-,N/A,,Clear,0,2012-12-05 00:15:00
6:35 PM,46.4,17.6,32,30.33,10.0,Calm,Calm,-,N/A,,Clear,0,2012-12-05 00:35:00
6:55 PM,46.4,17.6,32,30.33,10.0,SE,3.5,-,N/A,,Clear,130,2012-12-05 00:55:00
7:15 PM,44.6,17.6,34,30.33,10.0,ESE,3.5,-,N/A,,Clear,120,2012-12-05 01:15:00
7:35 PM,44.6,17.6,34,30.33,10.0,SE,5.8,-,N/A,,Clear,130,2012-12-05 01:35:00
7:55 PM,42.8,17.6,36,30.34,10.0,SE,6.9,-,N/A,,Clear,140,2012-12-05 01:55:00
8:15 PM,42.8,17.6,36,30.34,10.0,SE,5.8,-,N/A,,Clear,140,2012-12-05 02:15:00
8:35 PM,44.6,15.8,31,30.34,10.0,SSE,8.1,-,N/A,,Clear,160,2012-12-05 02:35:00
8:55 PM,42.8,15.8,34,30.33,10.0,SSE,8.1,-,N/A,,Clear,160,2012-12-05 02:55:00
9:15 PM,41.0,17.6,39,30.32,10.0,SSE,9.2,-,N/A,,Clear,160,2012-12-05 03:15:00
9:35 PM,42.8,17.6,36,30.32,10.0,SSE,9.2,-,N/A,,Clear,150,2012-12-05 03:35:00
9:55 PM,44.6,17.6,34,30.32,10.0,SSE,9.2,-,N/A,,Clear,160,2012-12-05 03:55:00
10:15 PM,42.8,17.6,36,30.33,10.0,SSE,9.2,-,N/A,,Clear,160,2012-12-05 04:15:00
10:35 PM,42.8,17.6,36,30.33,10.0,South,6.9,-,N/A,,Clear,180,2012-12-05 04:35:00
10:55 PM,35.6,19.4,52,30.34,10.0,WSW,4.6,-,N/A,,Clear,240,2012-12-05 04:55:00
11:15 PM,33.8,19.4,56,30.34,10.0,SSW,5.8,-,N/A,,Clear,200,2012-12-05 05:15:00
11:35 PM,35.6,19.4,52,30.33,10.0,South,8.1,-,N/A,,Clear,190,2012-12-05 05:35:00
11:55 PM,42.8,17.6,36,30.33,10.0,South,10.4,-,N/A,,Clear,170,2012-12-05 05:55:00